period_start,C,m1,H,J0,J1,J2,J3,J4,J5,JA,JB,JC,JD,JJ,JK,JN,#
2016-03-24 00:00:10,0.03,7.97,0.00,17.96,22.28,25.74,14.91,53.22,1019.56,2052.52,1500.98,1713.00,1916.99,600.28,608.40,58.94,0000 0000 0000 0000 000000
2016-03-24 00:05:11,0.16,7.97,0.00,17.95,22.27,25.75,14.94,53.50,1019.55,2052.70,1500.23,1712.53,1916.34,600.17,608.19,58.99,0000 0000 0000 0000 000000
2016-03-24 00:10:13,0.07,7.98,0.00,17.95,22.27,25.71,14.89,53.22,1019.55,2052.82,1499.69,1712.01,1915.96,599.91,608.18,59.04,0000 0000 0000 0000 000000
2016-03-24 00:15:14,0.11,7.98,0.00,17.93,22.25,25.72,15.03,53.19,1019.55,2052.95,1498.85,1711.74,1915.20,600.51,608.77,59.09,0000 0000 0000 0000 000000
2016-03-24 00:20:16,0.08,7.99,0.00,17.92,22.24,25.72,15.02,53.23,1019.55,2052.96,1498.04,1711.04,1914.77,600.23,608.40,59.14,0000 0000 0000 0000 000000
2016-03-24 00:25:17,0.10,8.00,0.00,17.92,22.24,25.73,15.00,53.31,1019.54,2052.96,1497.22,1710.77,1914.04,600.11,608.32,59.19,0000 0000 0000 0000 000000
2016-03-24 00:30:18,0.12,8.00,0.00,17.92,22.23,25.72,14.96,53.38,1019.53,2052.98,1496.52,1710.04,1913.55,599.92,608.02,59.24,0000 0000 0000 0000 000000
2016-03-24 00:35:19,0.06,8.01,0.00,17.92,22.22,25.70,14.96,53.36,1019.52,2052.97,1495.88,1709.72,1912.97,599.98,608.09,59.29,0000 0000 0000 0000 000000
2016-03-24 00:40:21,0.12,8.01,0.00,17.89,22.22,25.69,14.95,53.39,1019.54,2052.96,1495.08,1709.05,1912.21,600.11,608.27,59.34,0000 0000 0000 0000 000000
2016-03-24 00:45:22,0.09,8.02,0.00,17.88,22.21,25.69,14.85,53.29,1019.55,2052.98,1494.29,1708.76,1911.84,599.68,607.97,59.39,0000 0000 0000 0000 000000
2016-03-24 00:50:24,0.11,8.02,0.00,17.89,22.20,25.69,14.98,53.37,1019.55,2052.98,1493.62,1708.04,1911.05,600.04,608.28,59.44,0000 0000 0000 0000 000000
2016-03-24 00:55:25,0.07,8.03,0.00,17.87,22.19,25.69,14.98,53.42,1019.55,2052.98,1492.88,1707.84,1910.57,600.25,608.57,59.50,0000 0000 0000 0000 000000
2016-03-24 01:00:26,0.11,8.03,0.00,17.87,22.19,25.70,14.97,53.40,1019.58,2052.98,1492.06,1707.07,1909.97,600.11,608.52,59.55,0000 0000 0000 0000 000000
2016-03-24 01:05:27,0.12,8.04,0.00,17.85,22.18,25.67,14.91,53.15,1019.71,2052.98,1491.25,1706.75,1909.18,599.91,608.25,59.60,0000 0000 0000 0000 000000
2016-03-24 01:10:29,0.10,8.04,0.00,17.83,22.17,25.67,15.00,53.20,1019.93,2052.99,1490.52,1706.05,1908.75,599.78,608.40,59.65,0000 0000 0000 0000 000000
2016-03-24 01:15:30,0.09,8.05,0.00,17.82,22.17,25.68,14.90,53.21,1020.03,2052.99,1489.70,1705.78,1908.03,599.65,608.41,59.70,0000 0000 0000 0000 000000
2016-03-24 01:20:31,0.10,8.05,0.00,17.82,22.17,25.66,14.97,53.05,1020.03,2052.99,1488.99,1705.06,1907.34,600.13,608.68,59.75,0000 0000 0000 0000 000000
2016-03-24 01:25:33,0.07,8.06,0.00,17.82,22.17,25.66,14.94,53.13,1020.04,2052.99,1488.20,1704.87,1906.97,599.86,608.65,59.80,0000 0000 0000 0000 000000
2016-03-24 01:30:34,0.12,8.06,0.00,17.81,22.17,25.64,14.98,53.12,1020.05,2052.99,1487.63,1704.13,1906.22,599.85,608.61,59.85,0000 0000 0000 0000 000000
2016-03-24 01:35:35,0.07,8.07,0.00,17.80,22.17,25.65,14.92,53.10,1020.11,2052.99,1486.79,1703.86,1905.76,599.89,608.61,59.90,0000 0000 0000 0000 000000
2016-03-24 01:40:37,0.11,8.08,0.00,17.81,22.16,25.65,14.96,53.08,1020.34,2052.99,1486.01,1703.09,1905.03,600.03,608.89,59.95,0000 0000 0000 0000 000000
2016-03-24 01:45:38,0.10,8.08,0.00,17.79,22.14,25.65,14.92,53.22,1020.49,2052.99,1485.24,1702.91,1904.48,599.80,608.76,60.00,0000 0000 0000 0000 000000
2016-03-24 01:50:39,0.10,8.08,0.00,17.78,22.14,25.66,14.99,53.26,1020.52,2052.99,1484.58,1702.16,1903.99,600.10,609.21,60.05,0000 0000 0000 0000 000000
2016-03-24 01:55:40,0.07,8.09,0.00,17.77,22.14,25.64,14.91,53.15,1020.52,2052.99,1483.87,1701.91,1903.27,600.01,609.11,60.10,0000 0000 0000 0000 000000
2016-03-24 02:00:41,0.15,4.05,0.00,17.75,22.14,25.63,13.12,45.77,1020.53,2055.66,2625.91,2490.57,2816.20,530.54,538.52,0.02,0000 0000 0000 0000 000002
2016-03-24 02:05:43,0.14,0.00,0.00,17.74,22.13,25.62,14.88,50.99,1020.54,2058.00,3620.38,3178.88,3614.15,599.75,608.85,0.04,0000 0000 0000 0000 000000
2016-03-24 02:10:44,0.13,0.00,0.00,17.75,22.12,25.65,14.94,50.86,1020.60,2057.99,3617.22,3177.19,3612.16,599.87,608.93,0.09,0000 0000 0000 0000 000000
2016-03-24 02:15:45,0.13,0.01,0.00,17.75,22.10,25.65,14.90,50.73,1020.84,2057.99,3614.72,3175.68,3610.29,599.92,609.11,0.14,0000 0000 0000 0000 000000
2016-03-24 02:20:46,0.12,0.01,0.00,17.73,22.09,25.64,14.86,50.65,1020.99,2057.99,3612.32,3174.22,3608.50,599.22,608.65,0.19,0000 0000 0000 0000 000000
2016-03-24 02:25:48,0.11,0.02,0.00,17.73,22.09,25.64,14.93,50.65,1021.01,2057.99,3610.03,3172.71,3606.70,600.21,609.69,0.24,0000 0000 0000 0000 000000
2016-03-24 02:30:49,0.09,0.02,0.00,17.73,22.08,25.63,14.97,50.70,1021.01,2057.99,3607.78,3171.28,3604.91,600.20,609.73,0.29,0000 0000 0000 0000 000000
2016-03-24 02:35:50,0.09,0.03,0.00,17.74,22.07,25.62,14.98,50.65,1021.01,2057.99,3605.48,3169.75,3603.11,600.18,609.55,0.34,0000 0000 0000 0000 000000
2016-03-24 02:40:52,0.08,0.03,0.00,17.71,22.07,25.63,15.02,50.75,1021.01,2057.99,3603.30,3168.32,3601.34,600.03,609.45,0.39,0000 0000 0000 0000 000000
2016-03-24 02:45:53,0.10,0.04,0.00,17.72,22.07,25.63,14.83,50.46,1021.01,2057.99,3601.03,3166.79,3599.54,599.74,609.28,0.44,0000 0000 0000 0000 000000
2016-03-24 02:50:54,0.09,0.04,0.00,17.72,22.07,25.64,14.90,50.50,1021.02,2057.99,3598.90,3165.34,3597.78,599.76,609.22,0.49,0000 0000 0000 0000 000000
2016-03-24 02:55:55,0.10,0.05,0.00,17.72,22.05,25.63,15.04,50.43,1021.02,2057.99,3596.69,3163.80,3596.04,599.99,609.54,0.54,0000 0000 0000 0000 000000
2016-03-24 03:00:57,0.08,0.05,0.00,17.70,22.05,25.65,14.92,50.47,1021.01,2057.99,3594.47,3162.42,3594.31,599.85,609.37,0.59,0000 0000 0000 0000 000000
2016-03-24 03:05:59,0.09,0.06,0.00,17.69,22.04,25.62,14.96,50.35,1021.01,2057.99,3592.26,3160.94,3592.57,599.96,609.47,0.64,0000 0000 0000 0000 000000
2016-03-24 03:11:00,0.10,0.06,0.00,17.68,22.04,25.62,14.90,50.19,1021.02,2058.00,3590.07,3159.57,3590.81,599.90,609.46,0.69,0000 0000 0000 0000 000000
2016-03-24 03:16:01,0.08,0.07,0.00,17.67,22.04,25.63,14.97,50.19,1021.03,2058.00,3587.97,3158.03,3589.07,600.09,609.70,0.74,0000 0000 0000 0000 000000
2016-03-24 03:21:02,0.09,0.07,0.00,17.67,22.04,25.60,14.98,50.39,1021.02,2058.00,3585.86,3156.61,3587.40,600.20,609.79,0.79,0000 0000 0000 0000 000000
2016-03-24 03:26:04,0.08,0.07,0.00,17.68,22.02,25.63,14.91,50.36,1021.05,2058.01,3583.77,3155.14,3585.60,599.99,609.48,0.84,0000 0000 0000 0000 000000
2016-03-24 03:31:05,0.10,0.08,0.00,17.66,22.02,25.62,14.95,50.46,1021.05,2058.01,3581.79,3153.66,3583.91,600.01,609.54,0.89,0000 0000 0000 0000 000000
2016-03-24 03:36:06,0.08,0.08,0.00,17.64,22.02,25.62,14.97,50.47,1021.09,2058.01,3579.64,3152.21,3582.34,600.20,609.87,0.94,0000 0000 0000 0000 000000
2016-03-24 03:41:08,0.10,0.09,0.00,17.66,22.02,25.60,14.94,50.34,1021.25,2058.01,3577.43,3150.73,3580.63,600.23,609.97,0.99,0000 0000 0000 0000 000000
2016-03-24 03:46:09,0.09,0.09,0.00,17.67,22.02,25.56,14.93,50.32,1021.43,2058.01,3575.29,3149.31,3578.85,600.24,610.10,1.04,0000 0000 0000 0000 000000
2016-03-24 03:51:10,0.09,0.10,0.00,17.67,22.02,25.60,14.94,50.21,1021.50,2058.03,3573.17,3147.84,3577.13,599.88,609.90,1.09,0000 0000 0000 0000 000000
2016-03-24 03:56:12,0.10,0.10,0.00,17.69,22.01,25.59,14.95,50.28,1021.50,2058.02,3570.93,3146.34,3575.32,600.04,609.88,1.14,0000 0000 0000 0000 000000
2016-03-24 04:01:13,0.09,0.11,0.00,17.72,22.00,25.62,14.94,50.32,1021.49,2058.00,3568.72,3144.82,3573.49,600.00,609.76,1.19,0000 0000 0000 0000 000000
2016-03-24 04:06:14,0.09,0.11,0.00,17.72,21.99,25.58,14.92,50.33,1021.45,2058.02,3566.52,3143.38,3571.74,599.99,609.73,1.24,0000 0000 0000 0000 000000
2016-03-24 04:11:15,0.10,0.12,0.00,17.74,21.99,25.60,14.94,50.27,1021.28,2058.02,3564.29,3141.76,3569.87,599.90,609.49,1.29,0000 0000 0000 0000 000000
2016-03-24 04:16:16,0.09,0.12,0.00,17.74,21.99,25.59,14.93,50.23,1021.15,2058.02,3562.03,3140.27,3568.09,600.14,609.49,1.34,0000 0000 0000 0000 000000
2016-03-24 04:21:17,0.10,0.13,0.00,17.74,21.99,25.61,14.92,50.41,1021.15,2058.01,3559.76,3138.65,3566.13,599.76,609.36,1.39,0000 0000 0000 0000 000000
2016-03-24 04:26:18,0.09,0.13,0.00,17.71,21.99,25.64,14.94,50.41,1021.18,2058.03,3557.42,3137.09,3564.23,599.89,609.48,1.44,0000 0000 0000 0000 000000
2016-03-24 04:31:20,0.10,0.14,0.00,17.71,21.99,25.60,14.90,50.21,1021.27,2058.02,3555.15,3135.37,3562.16,599.75,609.41,1.49,0000 0000 0000 0000 000000
2016-03-24 04:36:21,0.10,0.14,0.00,17.69,21.99,25.62,14.97,50.34,1021.43,2058.01,3552.81,3133.85,3560.20,599.98,609.79,1.54,0000 0000 0000 0000 000000
2016-03-24 04:41:22,0.10,0.15,0.00,17.67,21.99,25.59,14.89,50.20,1021.48,2058.01,3550.43,3132.32,3558.31,599.61,609.47,1.59,0000 0000 0000 0000 000000
2016-03-24 04:46:23,0.10,0.15,0.00,17.65,21.98,25.63,14.90,50.17,1021.50,2058.02,3548.19,3130.73,3556.51,599.78,609.75,1.64,0000 0000 0000 0000 000000
2016-03-24 04:51:25,0.09,0.16,0.00,17.63,21.97,25.59,14.96,50.17,1021.50,2058.02,3545.99,3129.28,3554.78,600.35,610.31,1.69,0000 0000 0000 0000 000000
2016-03-24 04:56:26,0.10,0.16,0.00,17.63,21.97,25.56,14.87,50.08,1021.50,2058.06,3543.94,3127.83,3553.04,599.92,609.99,1.74,0000 0000 0000 0000 000000
2016-03-24 05:01:27,0.09,0.17,0.00,17.63,21.97,25.58,14.90,50.17,1021.51,2058.04,3541.64,3126.34,3551.21,599.91,609.87,1.79,0000 0000 0000 0000 000000
2016-03-24 05:06:29,0.10,0.17,0.00,17.59,21.97,25.59,14.95,50.03,1021.52,2058.01,3539.37,3124.72,3549.29,600.11,610.03,1.84,0000 0000 0000 0000 000000
2016-03-24 05:11:30,0.09,0.18,0.00,17.60,21.97,25.54,14.92,50.21,1021.53,2058.02,3537.12,3123.24,3547.53,599.75,609.71,1.89,0000 0000 0000 0000 000000
2016-03-24 05:16:31,0.10,0.18,0.00,17.59,21.95,25.56,15.01,50.24,1021.53,2058.04,3535.04,3121.73,3545.78,600.14,610.07,1.94,0000 0000 0000 0000 000000
2016-03-24 05:21:32,0.09,0.19,0.00,17.59,21.95,25.53,14.93,50.23,1021.52,2058.05,3532.78,3120.30,3544.02,600.05,610.13,1.99,0000 0000 0000 0000 000000
2016-03-24 05:26:33,0.10,0.19,0.00,17.59,21.94,25.53,14.96,50.19,1021.52,2058.09,3530.56,3118.75,3542.18,599.97,610.02,2.04,0000 0000 0000 0000 000000
2016-03-24 05:31:34,0.09,0.20,0.00,17.57,21.94,25.55,14.93,50.17,1021.53,2058.06,3528.36,3117.32,3540.45,599.88,610.07,2.09,0000 0000 0000 0000 000000
2016-03-24 05:36:36,0.10,0.20,0.00,17.56,21.94,25.55,14.90,50.03,1021.53,2058.06,3526.20,3115.78,3538.69,599.68,609.87,2.14,0000 0000 0000 0000 000000
2016-03-24 05:41:37,0.09,0.21,0.00,17.55,21.92,25.52,15.03,50.15,1021.57,2058.07,3524.06,3114.38,3536.93,600.47,610.61,2.19,0000 0000 0000 0000 000000
2016-03-24 05:46:38,0.09,0.21,0.00,17.55,21.92,25.55,15.01,50.18,1021.55,2058.06,3521.92,3112.91,3535.27,600.16,610.39,2.25,0000 0000 0000 0000 000000
2016-03-24 05:51:40,0.10,0.22,0.00,17.54,21.92,25.52,15.00,50.15,1021.52,2058.08,3519.82,3111.49,3533.53,600.39,610.54,2.30,0000 0000 0000 0000 000000
2016-03-24 05:56:41,0.09,0.22,0.00,17.53,21.92,25.52,14.97,50.07,1021.52,2058.10,3517.88,3110.08,3531.88,599.98,610.15,2.35,0000 0000 0000 0000 000000
2016-03-24 06:01:43,0.09,0.23,0.00,17.54,21.91,25.51,14.99,50.15,1021.51,2058.05,3515.69,3108.58,3530.07,600.25,610.40,2.40,0000 0000 0000 0000 000000
2016-03-24 06:06:45,0.09,0.23,0.00,17.54,21.90,25.49,14.96,50.01,1021.53,2058.09,3513.57,3107.16,3528.47,600.21,610.33,2.45,0000 0000 0000 0000 000000
2016-03-24 06:11:46,0.11,0.24,0.00,17.53,21.89,25.48,15.02,50.11,1021.54,2058.27,3511.61,3105.85,3526.85,600.13,610.25,2.50,0000 0000 0000 0000 000000
2016-03-24 06:16:47,0.08,0.24,0.00,17.53,21.89,25.48,14.95,50.20,1021.52,2058.35,3509.51,3104.50,3525.20,599.76,609.93,2.55,0000 0000 0000 0000 000000
2016-03-24 06:21:49,0.09,0.25,0.00,17.53,21.89,25.47,14.99,50.32,1021.56,2058.29,3507.37,3102.98,3523.51,600.16,610.36,2.60,0000 0000 0000 0000 000000
2016-03-24 06:26:50,0.10,0.25,0.00,17.54,21.89,25.48,14.95,50.18,1021.72,2058.37,3505.22,3101.54,3521.74,600.15,610.44,2.65,0000 0000 0000 0000 000000
2016-03-24 06:31:52,0.07,0.26,0.00,17.54,21.87,25.46,15.00,50.27,1021.80,2058.24,3503.09,3100.04,3520.08,600.30,610.50,2.70,0000 0000 0000 0000 000000
2016-03-24 06:36:53,0.11,0.26,0.00,17.52,21.87,25.48,14.95,50.18,1021.86,2058.31,3500.98,3098.62,3518.56,599.99,610.42,2.75,0000 0000 0000 0000 000000
2016-03-24 06:41:54,0.09,0.27,0.00,17.53,21.87,25.45,14.92,50.09,1021.84,2058.50,3498.88,3097.24,3516.86,599.98,610.24,2.80,0000 0000 0000 0000 000000
2016-03-24 06:46:56,0.09,0.27,0.00,17.54,21.87,25.46,14.94,50.23,1021.79,2058.53,3496.74,3095.78,3515.18,599.88,610.34,2.85,0000 0000 0000 0000 000000
2016-03-24 06:51:57,0.09,0.28,0.00,17.54,21.87,25.45,15.00,50.32,1021.87,2058.53,3494.61,3094.35,3513.50,600.20,610.57,2.90,0000 0000 0000 0000 000000
2016-03-24 06:56:58,0.10,0.28,0.00,17.54,21.86,25.44,15.02,50.42,1021.85,2058.67,3492.62,3092.90,3511.84,599.99,610.36,2.95,0000 0000 0000 0000 000000
2016-03-24 07:02:00,0.09,0.29,0.00,17.53,21.85,25.43,14.99,50.35,1021.88,2058.71,3490.54,3091.56,3510.21,599.89,610.29,3.00,0000 0000 0000 0000 000000
2016-03-24 07:07:01,0.09,0.29,0.00,17.52,21.84,25.44,14.96,50.27,1021.94,2058.77,3488.48,3090.16,3508.56,600.52,610.94,3.05,0000 0000 0000 0000 000000
2016-03-24 07:12:02,0.09,0.30,0.00,17.52,21.84,25.43,14.93,50.35,1021.94,2058.62,3486.33,3088.67,3506.79,599.82,610.26,3.10,0000 0000 0000 0000 000000
2016-03-24 07:17:03,0.08,0.30,0.00,17.53,21.84,25.42,14.91,50.33,1021.87,2058.75,3484.33,3087.39,3505.25,599.75,610.12,3.15,0000 0000 0000 0000 000000
2016-03-24 07:22:05,0.08,0.31,0.00,17.54,21.84,25.45,14.99,50.29,1021.87,2058.63,3482.30,3085.99,3503.62,600.17,610.46,3.20,0000 0000 0000 0000 000000
2016-03-24 07:27:06,0.11,0.31,0.00,17.53,21.84,25.43,14.97,50.29,1021.77,2058.80,3480.27,3084.61,3501.94,600.01,610.37,3.25,0000 0000 0000 0000 000000
2016-03-24 07:32:07,0.09,0.32,0.00,17.52,21.83,25.42,14.95,50.28,1021.83,2058.81,3478.20,3083.24,3500.32,600.33,610.72,3.30,0000 0000 0000 0000 000000
2016-03-24 07:37:09,0.10,0.32,0.00,17.52,21.82,25.42,14.93,50.20,1021.90,2058.82,3476.12,3081.81,3498.66,600.25,610.64,3.35,0000 0000 0000 0000 000000
2016-03-24 07:42:10,0.09,0.33,0.00,17.51,21.82,25.42,14.86,50.15,1021.90,2058.90,3474.09,3080.43,3496.98,599.90,610.34,3.40,0000 0000 0000 0000 000000
2016-03-24 07:47:12,0.09,0.33,0.00,17.51,21.82,25.40,14.96,50.14,1021.89,2058.97,3472.12,3079.03,3495.39,600.24,610.63,3.45,0000 0000 0000 0000 000000
2016-03-24 07:52:13,0.09,0.33,0.00,17.52,21.82,25.41,14.95,50.16,1021.92,2058.94,3470.10,3077.68,3493.72,599.94,610.37,3.50,0000 0000 0000 0000 000000
2016-03-24 07:57:14,0.08,0.34,0.00,17.55,21.82,25.41,14.96,50.02,1021.91,2058.93,3468.10,3076.28,3492.02,600.18,610.59,3.55,0000 0000 0000 0000 000000
2016-03-24 08:02:16,0.09,0.34,0.00,17.57,21.82,25.41,14.94,49.99,1021.89,2058.90,3466.09,3074.84,3490.41,600.09,610.45,3.60,0000 0000 0000 0000 000000
2016-03-24 08:07:17,0.07,0.35,0.00,17.58,21.82,25.42,14.93,50.07,1021.81,2058.72,3464.10,3073.50,3488.75,599.88,610.17,3.65,0000 0000 0000 0000 000000
2016-03-24 08:12:19,0.08,0.35,0.00,17.61,21.82,25.38,14.92,50.07,1021.73,2058.80,3462.19,3072.17,3487.21,600.18,610.30,3.70,0000 0000 0000 0000 000000
2016-03-24 08:17:20,0.07,0.36,0.00,17.60,21.82,25.33,14.96,50.21,1021.63,2058.65,3460.23,3070.82,3485.54,599.96,610.02,3.75,0000 0000 0000 0000 000000
2016-03-24 08:22:22,0.09,0.36,0.00,17.61,21.82,25.33,14.94,50.22,1021.74,2058.58,3458.22,3069.51,3483.82,599.95,610.02,3.80,0000 0000 0000 0000 000000
2016-03-24 08:27:23,0.09,0.37,0.00,17.60,21.82,25.33,14.89,50.24,1021.84,2058.77,3456.36,3068.25,3482.35,599.82,610.04,3.85,0000 0000 0000 0000 000000
2016-03-24 08:32:24,0.08,0.37,0.00,17.62,21.82,25.32,14.92,50.22,1021.94,2058.57,3454.48,3066.84,3480.67,599.79,610.00,3.90,0000 0000 0000 0000 000000
2016-03-24 08:37:26,0.06,0.37,0.00,17.68,21.82,25.30,14.92,50.05,1021.97,2058.31,3452.53,3065.49,3479.01,599.77,610.08,3.95,0000 0000 0000 0000 000000
2016-03-24 08:42:27,0.12,0.38,0.00,17.73,21.82,25.30,14.92,50.08,1021.98,2058.66,3450.59,3064.21,3477.56,599.80,609.81,4.00,0000 0000 0000 0000 000000
2016-03-24 08:47:28,0.05,0.38,0.00,17.81,21.83,25.34,14.93,50.13,1021.98,2058.33,3448.61,3062.76,3475.86,600.32,610.24,4.05,0000 0000 0000 0000 000000
2016-03-24 08:52:30,0.08,0.39,0.00,17.89,21.84,25.37,14.88,49.99,1021.98,2058.18,3446.60,3061.45,3474.29,599.75,609.44,4.10,0000 0000 0000 0000 000000
2016-03-24 08:57:31,0.08,0.39,0.00,17.95,21.84,25.39,14.97,50.22,1021.98,2058.12,3444.63,3060.07,3472.65,600.11,609.63,4.15,0000 0000 0000 0000 000000
2016-03-24 09:02:32,0.09,0.40,0.00,17.96,21.85,25.38,14.85,50.27,1021.97,2058.06,3442.65,3058.69,3470.98,600.10,609.70,4.20,0000 0000 0000 0000 000000
2016-03-24 09:07:34,0.08,0.40,0.00,17.94,21.86,25.39,14.91,50.44,1021.97,2058.03,3440.71,3057.37,3469.44,600.26,609.86,4.25,0000 0000 0000 0000 000000
2016-03-24 09:12:35,0.08,0.40,0.00,17.88,21.87,25.40,14.87,50.23,1021.97,2058.04,3438.80,3056.14,3467.94,600.01,609.82,4.30,0000 0000 0000 0000 000000
2016-03-24 09:17:36,0.09,0.41,0.00,17.80,21.87,25.41,14.90,50.31,1021.98,2058.06,3436.97,3054.83,3466.44,600.09,610.02,4.35,0000 0000 0000 0000 000000
2016-03-24 09:22:37,0.09,0.41,0.00,17.74,21.87,25.47,14.96,50.37,1021.99,2058.01,3434.84,3053.43,3464.69,599.97,609.95,4.40,0000 0000 0000 0000 000000
2016-03-24 09:27:38,0.08,0.42,0.00,17.69,21.87,25.53,14.93,50.38,1021.99,2058.01,3432.84,3052.03,3463.15,599.99,610.12,4.45,0000 0000 0000 0000 000000
2016-03-24 09:32:39,0.08,0.42,0.00,17.61,21.87,25.50,14.92,50.40,1021.98,2058.03,3431.05,3050.82,3461.72,600.03,610.28,4.51,0000 0000 0000 0000 000000
2016-03-24 09:37:40,0.08,0.43,0.00,17.54,21.85,25.53,15.00,50.32,1021.99,2058.04,3429.24,3049.64,3460.33,600.05,610.58,4.56,0000 0000 0000 0000 000000
2016-03-24 09:42:42,0.08,0.43,0.00,17.49,21.84,25.51,14.99,50.36,1021.99,2058.04,3427.35,3048.40,3458.82,600.01,610.62,4.61,0000 0000 0000 0000 000000
2016-03-24 09:47:43,0.08,0.44,0.00,17.45,21.84,25.48,14.99,50.33,1021.99,2058.05,3425.47,3047.18,3457.36,600.08,610.71,4.66,0000 0000 0000 0000 000000
2016-03-24 09:52:44,0.08,0.44,0.00,17.40,21.82,25.48,14.96,50.27,1021.99,2058.05,3423.66,3045.89,3455.87,600.03,610.75,4.71,0000 0000 0000 0000 000000
2016-03-24 09:57:45,0.08,0.44,0.00,17.35,21.81,25.43,15.03,50.36,1022.00,2058.05,3421.76,3044.69,3454.48,600.32,611.17,4.76,0000 0000 0000 0000 000000
2016-03-24 10:02:47,0.09,0.45,0.00,17.31,21.79,25.43,15.01,50.23,1022.02,2058.21,3419.98,3043.57,3453.10,600.50,611.32,4.81,0000 0000 0000 0000 000000
2016-03-24 10:07:47,0.07,0.45,0.00,17.28,21.78,25.40,14.97,50.21,1022.03,2058.18,3418.14,3042.35,3451.61,600.19,611.21,4.86,0000 0000 0000 0000 000000
2016-03-24 10:12:49,0.08,0.46,0.00,17.25,21.77,25.37,14.99,50.34,1022.00,2058.22,3416.24,3041.07,3450.19,599.99,611.11,4.91,0000 0000 0000 0000 000000
2016-03-24 10:17:50,0.11,0.46,0.00,17.23,21.74,25.36,14.88,50.08,1022.00,2058.45,3414.44,3039.96,3448.77,599.88,611.03,4.96,0000 0000 0000 0000 000000
2016-03-24 10:22:52,0.11,0.47,0.00,17.21,21.73,25.33,15.00,50.08,1022.01,2058.87,3412.69,3038.75,3447.49,600.15,611.21,5.01,0000 0000 0000 0000 000000
2016-03-24 10:27:53,0.08,0.47,0.00,17.20,21.71,25.30,14.97,50.01,1022.03,2058.91,3410.87,3037.48,3445.99,600.11,611.21,5.06,0000 0000 0000 0000 000000
2016-03-24 10:32:54,0.08,0.48,0.00,17.19,21.69,25.28,15.02,50.15,1022.02,2058.97,3409.11,3036.38,3444.60,600.23,611.31,5.11,0000 0000 0000 0000 000000
2016-03-24 10:37:56,0.07,0.48,0.00,17.16,21.67,25.25,15.00,50.12,1022.00,2058.98,3407.36,3035.22,3443.27,599.68,610.94,5.16,0000 0000 0000 0000 000000
2016-03-24 10:42:57,0.08,0.48,0.00,17.15,21.65,25.22,14.96,50.17,1021.99,2058.97,3405.56,3034.01,3441.84,600.04,611.27,5.21,0000 0000 0000 0000 000000
2016-03-24 10:47:58,0.08,0.49,0.00,17.13,21.63,25.20,14.98,50.15,1021.99,2058.99,3403.83,3032.85,3440.53,600.24,611.53,5.26,0000 0000 0000 0000 000000
2016-03-24 10:52:59,0.08,0.49,0.00,17.12,21.62,25.18,14.95,50.10,1021.99,2058.99,3402.04,3031.71,3439.20,599.82,611.18,5.31,0000 0000 0000 0000 000000
2016-03-24 10:58:00,0.08,0.50,0.00,17.10,21.59,25.16,14.95,50.02,1021.99,2058.99,3400.26,3030.59,3437.75,599.59,610.87,5.36,0000 0000 0000 0000 000000
2016-03-24 11:03:02,0.07,0.50,0.00,17.09,21.58,25.14,14.95,50.01,1021.99,2058.99,3398.43,3029.38,3436.38,599.78,611.07,5.41,0000 0000 0000 0000 000000
2016-03-24 11:08:03,0.07,0.51,0.00,17.07,21.56,25.14,15.01,49.86,1021.99,2058.99,3396.67,3028.17,3434.92,600.37,611.81,5.46,0000 0000 0000 0000 000000
2016-03-24 11:13:04,0.08,0.51,0.00,17.07,21.54,25.10,14.97,49.91,1021.99,2059.00,3394.97,3027.05,3433.58,599.97,611.38,5.51,0000 0000 0000 0000 000000
2016-03-24 11:18:05,0.08,0.51,0.00,17.06,21.53,25.09,15.01,49.92,1021.98,2059.01,3393.14,3025.80,3432.23,600.29,611.74,5.56,0000 0000 0000 0000 000000
2016-03-24 11:23:06,0.08,0.52,0.00,17.04,21.51,25.09,15.03,50.08,1021.95,2059.02,3391.37,3024.65,3430.75,600.12,611.54,5.61,0000 0000 0000 0000 000000
2016-03-24 11:28:07,0.07,0.52,0.00,17.04,21.49,25.04,14.96,49.99,1021.92,2059.02,3389.74,3023.54,3429.41,600.26,611.72,5.66,0000 0000 0000 0000 000000
2016-03-24 11:33:09,0.08,0.53,0.00,17.01,21.48,25.04,15.01,50.12,1021.89,2059.06,3387.81,3022.27,3427.93,600.13,611.61,5.71,0000 0000 0000 0000 000000
2016-03-24 11:38:10,0.11,0.53,0.00,16.99,21.46,25.01,14.96,50.12,1021.85,2059.28,3386.04,3021.08,3426.56,600.37,611.67,5.76,0000 0000 0000 0000 000000
2016-03-24 11:43:11,0.10,0.54,0.00,16.98,21.44,24.99,14.99,50.14,1021.75,2059.72,3384.31,3019.95,3425.27,599.91,611.32,5.81,0000 0000 0000 0000 000000
2016-03-24 11:48:12,0.11,0.54,0.00,16.96,21.42,24.96,14.96,50.13,1021.61,2059.85,3382.52,3018.79,3423.84,599.69,611.12,5.86,0000 0000 0000 0000 000000
2016-03-24 11:53:14,0.09,0.55,0.00,16.94,21.41,24.95,15.00,50.05,1021.56,2059.95,3380.66,3017.61,3422.42,599.84,611.28,5.91,0000 0000 0000 0000 000000
2016-03-24 11:58:15,0.08,0.55,0.00,16.94,21.39,24.95,15.02,50.02,1021.58,2059.97,3378.76,3016.38,3420.88,599.98,611.53,5.96,0000 0000 0000 0000 000000
2016-03-24 12:03:16,0.08,0.55,0.00,16.92,21.37,24.94,14.97,50.02,1021.55,2059.98,3376.92,3015.22,3419.55,599.65,611.33,6.01,0000 0000 0000 0000 000000
2016-03-24 12:08:17,0.07,0.56,0.00,16.91,21.36,24.91,14.96,50.01,1021.50,2059.98,3375.12,3013.98,3418.09,600.13,611.62,6.06,0000 0000 0000 0000 000000
2016-03-24 12:13:18,0.07,0.56,0.00,16.89,21.34,24.90,15.00,50.12,1021.50,2059.99,3373.43,3012.85,3416.76,600.04,611.54,6.11,0000 0000 0000 0000 000000
2016-03-24 12:18:20,0.08,0.57,0.00,16.88,21.32,24.85,14.99,50.20,1021.50,2059.99,3371.68,3011.75,3415.41,599.94,611.41,6.16,0000 0000 0000 0000 000000
2016-03-24 12:23:21,0.08,0.57,0.00,16.87,21.31,24.85,14.97,50.17,1021.45,2059.99,3369.90,3010.63,3414.06,599.69,611.18,6.21,0000 0000 0000 0000 000000
2016-03-24 12:28:22,0.08,0.57,0.00,16.86,21.29,24.82,14.97,50.18,1021.34,2059.99,3368.12,3009.42,3412.68,599.86,611.35,6.26,0000 0000 0000 0000 000000
2016-03-24 12:33:24,0.07,0.58,0.00,16.84,21.27,24.80,14.99,50.22,1021.22,2060.00,3366.37,3008.27,3411.36,600.16,611.61,6.31,0000 0000 0000 0000 000000
2016-03-24 12:38:25,0.08,0.58,0.00,16.82,21.25,24.79,14.98,50.15,1021.17,2060.03,3364.60,3007.27,3409.95,599.86,611.29,6.36,0000 0000 0000 0000 000000
2016-03-24 12:43:27,0.08,0.59,0.00,16.79,21.23,24.75,15.05,50.21,1021.07,2060.03,3362.81,3006.26,3408.63,600.20,611.65,6.41,0000 0000 0000 0000 000000
2016-03-24 12:48:28,0.07,0.59,0.00,16.78,21.21,24.71,14.97,50.23,1021.07,2060.06,3361.06,3005.06,3407.35,600.22,611.77,6.46,0000 0000 0000 0000 000000
2016-03-24 12:53:29,0.09,0.60,0.00,16.76,21.19,24.69,14.94,50.21,1021.04,2060.11,3359.21,3003.89,3405.89,599.75,611.21,6.51,0000 0000 0000 0000 000000
2016-03-24 12:58:30,0.10,0.60,0.00,16.74,21.17,24.68,15.00,50.27,1021.02,2060.27,3357.42,3002.71,3404.51,599.95,611.41,6.56,0000 0000 0000 0000 000000